Regional Weather Roundup
Issued by NWS

Home | Current Version | Previous Version | Text Only | Print | Product List | Glossary On
Versions: 1 2 3 4 5 6 7 8 9 10 11 12 13 14 15 16 17 18 19 20 21 22 23 24 25 26 27 28 29 30 31 32 33 34 35 36 37 38 39 40 41 42 43 44 45 46 47 48 49 50
000
ASUS43 KDTX 291910
RWRMI
MICHIGAN HOURLY REGIONAL WEATHER ROUNDUP
NATIONAL WEATHER SERVICE DETROIT/PONTIAC MI
300 PM EDT WED MAR 29 2017

NOTE: "FAIR" INDICATES FEW OR NO CLOUDS BELOW 12,000 FEET WITH NO
SIGNIFICANT WEATHER AND/OR OBSTRUCTION TO VISIBILITY.

MIZ047>049-052>055-059>063-066>070-074>076-081>083-292000-
SOUTHEAST LOWER MICHIGAN

CITY           SKY/WX    TMP DP  RH WIND       PRES   REMARKS
ADRIAN         MOSUNNY   53  35  50 E12       30.25F
ALMA           CLOUDY    51  35  53 NE15      30.28F
ANN ARBOR      CLOUDY    55  31  39 NE7       30.25F
BAD AXE        MOSUNNY   42  32  68 NE9       30.32S
CARO           MOSUNNY   49  39  68 N13G18    30.29F
DETROIT CITY   SUNNY     55  33  43 E8        30.26F
DETROIT        CLOUDY    55  28  35 E8        30.27F
FLINT          MOSUNNY   53  34  48 VRB5G20   30.28S
GROSSE ILE     SUNNY     46  36  68 S7        30.26F
HILLSDALE      MOSUNNY   52  32  46 E10G16    30.23S
HOWELL         MOSUNNY   53  29  38 N6        30.25F

CITY           SKY/WX    TMP DP  RH WIND       PRES   REMARKS
JACKSON        PTSUNNY   54  30  40 E8        30.24F
LAMBERTVILLE   MOSUNNY   53  31  42 E9        30.26F
LANSING        CLOUDY    53  31  42 NE8       30.27F
LAPEER         PTSUNNY   53  32  44 NE7G21    30.26F
MASON          CLOUDY    52  36  53 NE6       30.26F
MONROE         CLOUDY    52  36  54 E9        30.26F
MT. CLEMENS    PTSUNNY   55  36  49 E8        30.25F
PONTIAC        PTSUNNY   56  30  37 VRB5      30.25S
PORT HOPE        N/A     38  33  82 N10       30.32F WCI  31
PORT HURON     SUNNY     50  32  50 NE13      30.28S
TRI CITIES     CLOUDY    45  36  70 NE15      30.33F
MIDLAND        FAIR      44  32  63 E15G21    30.32S
TROY           SUNNY     56  26  32 NE5       30.27F
SAGINAW HB     MOSUNNY   45  32  61 N14       30.32S
$$
MIZ043>046-050>051-056>058-064>065-071>073-077>080-292000-
SOUTHWEST LOWER MICHIGAN

CITY           SKY/WX    TMP DP  RH WIND       PRES   REMARKS
BATTLE CREEK   CLOUDY    54  31  41 E12G21    30.24F
BENTON HARBOR  MOSUNNY   55  33  43 E9        30.23F
BIG RAPIDS     CLOUDY    53  24  31 N6        30.25F
COLDWATER      CLOUDY    54  31  40 NE14G22   30.23F
FREMONT        FAIR      54  26  33 NE3       30.26S
HOLLAND        CLOUDY    54  33  45 E12       30.27S
GRAND RAPIDS   CLOUDY    52  35  52 SE9       30.26F
IONIA          FAIR      51  32  49 E10       30.26F
KALAMAZOO      CLOUDY    58  29  33 E10       30.25S
LUDINGTON      CLOUDY    49  35  58 N9G17     30.28R
MARSHALL       CLOUDY    55  30  39 NE6       30.24S
MOUNT PLEASANT CLOUDY    53  26  35 NE6       30.26F
MUSKEGON       CLOUDY    55  29  36 VRB3      30.27S
SOUTH HAVEN    CLOUDY    55  33  43 E7        30.24F
$$
MIZ016>042-292000-
NORTHERN LOWER MICHIGAN

CITY           SKY/WX    TMP DP  RH WIND       PRES   REMARKS
ALPENA         MOSUNNY   41  28  60 E9        30.36F
BEAVER ISLAND  MOSUNNY   41  27  58 NE8       30.35F
BELLAIRE       MOSUNNY   48  29  46 E6        30.30F
CADILLAC       CLOUDY    49  21  32 N3        30.25F
CHARLEVOIX     MOSUNNY   38  32  77 N8        30.36F WCI  32
FRANKFORT      CLOUDY    44  32  62 N6        30.30S
GAYLORD        MOSUNNY   47  26  44 VRB5      30.30F
GRAYLING       MOSUNNY   48  28  46 NE7       30.29F
HARBOR SPRINGS CLOUDY    45  30  55 E9        30.33F
HOUGHTON LAKE  CLOUDY    49  27  42 VRB6      30.28F
MANISTEE       PTSUNNY   47  34  60 NW7       30.29S
OSCODA         MOSUNNY   40  28  64 NE15      30.34F WCI  31
PELLSTON       MOSUNNY   42  26  53 E9        30.35F
ROGERS CITY    CLOUDY    38  26  63 E9        30.38F WCI  31
TRAVERSE CITY  CLOUDY    41  33  73 NE10      30.30F
$$
MIZ007>008-015-292000-
EASTERN UPPER MICHIGAN

CITY           SKY/WX    TMP DP  RH WIND       PRES   REMARKS
KINROSS        MOSUNNY   43  18  36 SE14      30.35F
MACKINAC ISLAN MOSUNNY   36  22  57 E8G17     30.36S WCI  29
NEWBERRY       CLOUDY    41  23  50 N8        30.33F
S. S. MARIE    MOSUNNY   44  19  36 CALM      30.35F
MUNISING         N/A     32  27  81 N13       30.36F WCI  22
$$
MIZ004>006-011>014-085-292000-
CENTRAL UPPER MICHIGAN

CITY           SKY/WX    TMP DP  RH WIND       PRES   REMARKS
MANISTIQUE     CLOUDY    38  30  72 SE6       30.34F WCI  33
ESCANABA       CLOUDY    38  29  70 S8        30.34F WCI  32
MENOMINEE      LGT RAIN  37  30  75 E10       30.36  WCI  30
SAWYER-GWINN   SUNNY     34  25  69 N8        30.34F WCI  27
$$
MIZ001>003-009>011-084-292000-
WESTERN UPPER MICHIGAN

CITY           SKY/WX    TMP DP  RH WIND       PRES   REMARKS
IRON MOUNTAIN  CLOUDY    45  24  43 VRB3      30.31S
HOUGHTON       PTSUNNY   34  26  72 SE12      30.36S WCI  25
COPPER HARBOR    N/A     35  27  72 E9        30.38F WCI  28
IRONWOOD       CLOUDY    50  29  44 E3        30.28F
$$

ABBREVIATIONS USED IN REMARKS
   TC - TEMPERATURE IN CELSIUS
  WCI - WIND CHILL INDEX
   HX - HEAT INDEX
  VSB - VISIBILITY





USA.gov is the U.S. government's official web portal to all federal, state and local government web resources and services.